Location: Ch�ze
(42.9000°N, 0.0333°W)
Time: 23:49:36
(UTC+00:00)

Cosmos 2292 Rocket - Pass Details

Date: 24 January 2021
Orbit: 380 x 1450 km, 83.0° (Epoch: 24 February)

Event Time Altitude Azimuth Distance (km) Brightness Sun altitude
Rises 19:22:44 0° 184° (S) 3,691 7.6 -25.5°
Reaches altitude 10° 19:25:35 10° 184° (S) 2,568 6.8 -26.1°
Enters shadow 19:29:52 49° 179° (S) 980 4.4 -26.8°
